TimeEST,TemperatureF,Dew PointF,Humidity,Sea Level PressureIn,VisibilityMPH,Wind Direction,Wind SpeedMPH,Gust SpeedMPH,PrecipitationIn,Events,Conditions,WindDirDegrees,DateUTC
12:54 AM,41.0,28.9,62,30.23,10.0,SSW,5.8,-,0.00,,Overcast,200,2013-01-06 05:54:00
1:54 AM,39.9,30.9,70,30.22,10.0,South,5.8,-,0.00,Rain,Light Rain,190,2013-01-06 06:54:00
2:54 AM,39.0,32.0,76,30.21,10.0,Calm,Calm,-,0.01,Rain,Light Rain,0,2013-01-06 07:54:00
3:54 AM,37.9,33.1,83,30.19,10.0,South,9.2,-,0.01,Rain,Light Rain,170,2013-01-06 08:54:00
4:54 AM,37.9,35.1,89,30.16,10.0,Calm,Calm,-,0.01,,Overcast,0,2013-01-06 09:54:00
5:54 AM,39.0,34.0,82,30.17,10.0,SW,6.9,-,N/A,,Mostly Cloudy,230,2013-01-06 10:54:00
6:54 AM,37.0,33.1,86,30.17,10.0,SW,4.6,-,N/A,,Mostly Cloudy,220,2013-01-06 11:54:00
7:54 AM,37.0,34.0,89,30.17,10.0,SSW,4.6,-,N/A,,Mostly Cloudy,200,2013-01-06 12:54:00
8:54 AM,41.0,36.0,82,30.17,10.0,SW,4.6,-,N/A,,Mostly Cloudy,230,2013-01-06 13:54:00
9:54 AM,44.1,35.1,71,30.17,10.0,West,6.9,-,N/A,,Mostly Cloudy,260,2013-01-06 14:54:00
10:54 AM,48.9,34.0,56,30.17,10.0,West,6.9,-,N/A,,Mostly Cloudy,270,2013-01-06 15:54:00
11:54 AM,52.0,32.0,47,30.12,10.0,WNW,4.6,-,N/A,,Mostly Cloudy,290,2013-01-06 16:54:00
12:54 PM,51.8,30.2,44,30.07,10.0,West,4.6,-,N/A,,Mostly Cloudy,260,2013-01-06 17:54:00
1:54 PM,54.0,30.0,40,30.07,10.0,WSW,4.6,-,N/A,,Mostly Cloudy,240,2013-01-06 18:54:00
2:54 PM,54.0,30.0,40,30.06,10.0,West,5.8,-,N/A,,Mostly Cloudy,280,2013-01-06 19:54:00
3:54 PM,53.1,30.0,41,30.05,10.0,WSW,4.6,-,N/A,,Scattered Clouds,240,2013-01-06 20:54:00
4:54 PM,51.1,28.9,43,30.06,10.0,West,5.8,-,N/A,,Mostly Cloudy,270,2013-01-06 21:54:00
5:54 PM,48.0,28.0,46,30.07,10.0,WNW,5.8,-,N/A,,Mostly Cloudy,300,2013-01-06 22:54:00
6:54 PM,42.1,30.0,62,30.09,10.0,Calm,Calm,-,N/A,,Mostly Cloudy,0,2013-01-06 23:54:00
7:54 PM,39.0,30.9,73,30.11,10.0,Calm,Calm,-,N/A,,Mostly Cloudy,0,2013-01-07 00:54:00
8:54 PM,45.0,30.0,56,30.12,10.0,NW,5.8,-,N/A,,Overcast,320,2013-01-07 01:54:00
9:54 PM,46.4,28.4,50,30.11,10.0,Calm,Calm,-,N/A,,Overcast,0,2013-01-07 02:54:00
10:54 PM,44.6,26.6,49,30.13,10.0,WNW,5.8,-,N/A,,Partly Cloudy,300,2013-01-07 03:54:00
11:54 PM,42.1,27.0,55,30.16,10.0,WNW,5.8,-,N/A,,Partly Cloudy,300,2013-01-07 04:54:00